[[{"header":{"parameterUnit":"m.s-1","parameterCategory":1,"la1":30.2991,"la2":30.254,"lo1":-89.0895,"lo2":-89.0444,"dy":0.0017,"dx":0.0017,"nx":28,"ny":28,"refTime":"2024-07-02T21:00:00:Z","depth":0,"parameterNumber":2,"parameterNumberName":"U-component_of_WINDS"},"data":[0,0,0,0,0,0,0,0,0,0,0,0,0,0,0,0,0,0,0,0,0,0,0,0,0,0,0,0,0,0,0,0,0,0,0,0,0,0,0,0,0,0,0,0,0,0,0,0,0,0,0,0,0,0,0,0,0,0,3.1012,3.1013,0,3.1088,3.1089,3.109,3.1047,3.1045,3.1043,3.1041,3.1117,3.1121,3.1125,0,0,0,0,0,0,0,0,0,0,0,0,0,3.0827,3.0831,3.1012,3.1013,3.1014,3.1088,3.1089,3.109,3.1047,3.1045,3.1042,3.104,3.1116,3.1121,3.1126,0,0,0,0,0,0,0,0,0,0,0,0,0,3.0906,3.0832,3.1012,3.1001,3.1001,3.1088,3.1089,3.109,3.1048,3.1045,3.1041,3.1038,3.1114,3.112,3.1126,3.1227,0,0,3.1145,3.1147,0,0,0,0,0,0,0,0,3.0901,3.0912,3.1002,3.1002,3.1002,3.1055,3.1052,3.1136,3.1049,3.103,3.1041,3.1037,3.1099,3.1106,3.1127,3.123,3.1234,3.1145,3.1149,3.1151,3.1153,0,0,0,0,0,0,0,3.0896,3.0909,3.1042,3.1003,3.1003,3.0992,3.1,3.1067,3.1081,3.1031,3.1028,3.1038,3.1098,3.1122,3.1129,3.1235,3.1145,3.115,3.1154,3.1156,3.1421,3.1424,0,0,0,0,0,0,3.0891,3.0905,3.1039,3.1044,3.0943,3.0998,3.1007,3.1041,3.108,3.1083,3.1041,3.1036,3.1113,3.1122,3.1131,3.1248,3.1151,3.1157,3.116,3.1417,3.1421,3.1425,0,0,0,0,0,0,3.0887,3.0904,3.1036,3.0974,3.099,3.1005,3.1044,3.1044,3.1067,3.1088,3.109,3.1062,3.1111,3.1123,3.1203,3.1251,3.116,3.1165,3.1413,3.1419,3.1423,3.1486,0,0,0,0,0,0,3.0882,3.0903,3.0941,3.0975,3.0993,3.1107,3.1047,3.1048,3.1078,3.1072,3.1108,3.1111,3.1109,3.1194,3.1209,3.1257,3.117,3.1409,3.1416,3.1422,3.1479,3.1492,3.1503,0,0,0,0,0,3.0876,3.0956,3.0944,3.096,3.1042,3.111,3.112,3.1117,3.1082,3.112,3.1133,3.111,3.1244,3.1202,3.1219,3.127,3.1406,3.1414,3.1421,3.1474,3.149,3.1503,0,0,0,0,0,0,3.0928,3.0961,3.0947,3.1041,3.1073,3.1103,3.1151,3.1135,3.1177,3.117,3.1164,3.1172,3.1255,3.1271,3.1224,3.1368,3.1319,3.133,3.1354,3.1369,3.1381,3.1374,3.1175,0,0,0,0,0,3.0951,3.1004,3.1029,3.111,3.1127,3.1136,3.1166,3.1161,3.1193,3.1207,3.1225,3.1258,3.1307,3.1339,3.1386,3.1482,3.1488,3.1526,3.1538,3.1547,3.1556,3.1605,3.1621,3.145,3.145,3.145,0,0,3.0998,3.1022,3.1056,3.1121,3.1145,3.1199,3.1148,3.1208,3.1247,3.1216,3.1291,3.1306,3.1342,3.143,3.1469,3.1445,3.1605,3.1557,3.1565,3.1568,3.1615,3.1631,3.1645,3.1455,3.1455,3.1454,0,0,3.111,3.1135,3.1203,3.1228,3.1266,3.1272,3.1288,3.1321,3.1329,3.1405,3.1382,3.1429,3.1514,3.1539,3.1564,3.1685,3.1663,3.17,3.1762,3.181,3.1823,3.1835,3.1875,3.189,3.171,3.171,3.171,0,3.1163,3.1243,3.124,3.1301,3.1329,3.1304,3.1371,3.1396,3.1447,3.1466,3.1439,3.1545,3.1567,3.1659,3.1688,3.171,3.1726,3.1695,3.1822,3.1833,3.1844,3.1882,3.1898,3.1714,3.1713,3.1713,3.1713,0,3.1305,3.1362,3.1412,3.1461,3.1495,3.156,3.1564,3.16,3.1591,3.16,3.1676,3.1703,3.1752,3.1775,3.1768,3.1865,3.1848,3.1822,3.1773,3.1865,3.19,3.1915,3.1719,3.1718,3.1717,3.1716,0,0,3.1451,3.1497,3.1515,3.1536,3.1575,3.1618,3.1681,3.1729,3.1758,3.1794,3.1844,3.1917,3.1892,3.192,3.1916,3.1958,3.2048,3.1926,3.1927,3.1945,3.2153,3.217,3.2187,3.2036,3.2039,3.2041,3.2149,0,3.1562,3.1671,3.167,3.177,3.182,3.1797,3.1851,3.188,3.189,3.1933,3.1944,3.1994,3.1959,3.1975,3.2017,3.2028,3.2089,3.2021,3.208,3.2082,3.2068,3.2206,3.2225,3.2326,3.2163,3.2165,3.2167,0,3.1707,3.1747,3.1852,3.1882,3.1903,3.1952,3.1995,3.2038,3.207,3.2074,3.2104,3.2093,3.2155,3.2106,3.219,3.2143,3.2167,3.2177,3.2181,3.2183,3.2128,3.2209,3.2358,3.2372,3.219,3.2188,3.2186,0,3.1798,3.1879,3.1951,3.197,3.2008,3.2042,3.2059,3.2088,3.2117,3.2156,3.2174,3.2219,3.2243,3.2278,3.2279,3.2244,3.2362,3.2314,3.2365,3.2365,3.2388,3.2386,3.2539,3.241,3.241,3.2409,3.2409,0,3.1921,3.1985,3.1992,3.2036,3.2107,3.2105,3.2175,3.2189,3.2215,3.226,3.2244,3.2287,3.2287,3.2331,3.2332,3.2399,3.2411,3.2414,3.2413,3.2414,3.2413,3.2427,3.2418,3.2413,3.2413,3.2412,3.2411,0,3.2033,3.2041,3.2117,3.2147,3.2156,3.2206,3.2231,3.2272,3.228,3.2338,3.2351,3.2364,3.2414,3.2419,3.2478,3.2479,3.2559,3.2552,3.2547,3.2545,3.2594,3.2588,3.2759,3.278,3.264,3.2642,3.2643,0,3.2109,3.2157,3.2192,3.2221,3.224,3.2288,3.2317,3.2317,3.2348,3.2387,3.2423,3.2472,3.2511,3.2592,3.2605,3.265,3.2641,3.2699,3.2648,3.2646,3.2638,3.2634,3.2637,3.2707,3.2709,3.271,3.2711,0,3.2242,3.2243,3.2285,3.233,3.2365,3.2399,3.2432,3.2457,3.246,3.2496,3.2546,3.2576,3.2636,3.2683,3.2726,3.2743,3.2727,3.2727,3.2741,3.274,3.2734,3.2734,3.257,3.2723,3.2721,3.2721,3.272,3.2719,3.2335,3.2376,3.2406,3.2454,3.2479,3.2509,3.2548,3.2562,3.2604,3.2652,3.265,3.2705,3.2735,3.2791,3.2811,3.2854,3.2834,3.2855,3.2859,3.2863,3.2866,3.273,3.2862,3.2862,3.2861,3.2861,3.2861,0,3.2464,3.2482,3.2526,3.2572,3.2609,3.2592,3.2627,3.2658,3.2707,3.2737,3.2775,3.2832,3.2878,3.2896,3.294,3.297,3.2964,3.2982,3.2978,3.2981,3.2883,3.2865,3.2986,3.2986,3.2986,3.2986,3.2986,3.2986,3.2535,3.2603,3.2607,3.2686,3.2704,3.2758,3.2779,3.2806,3.2829,3.2894,3.2932,3.2944,3.2967,3.3013,3.3054,3.3058,3.3073,3.3094,3.3094,3.3001,3.2988,3.2976,3.2959,3.3098,3.3098,3.3188,3.3189,3.319]},{"header":{"parameterUnit":"m.s-1","parameterCategory":1,"la1":30.2991,"la2":30.254,"lo1":-89.0895,"lo2":-89.0444,"dy":0.0017,"dx":0.0017,"nx":28,"ny":28,"refTime":"2024-07-02T21:00:00:Z","depth":0,"parameterNumber":3,"parameterNumberName":"V-component_of_WINDS"},"data":[0,0,0,0,0,0,0,0,0,0,0,0,0,0,0,0,0,0,0,0,0,0,0,0,0,0,0,0,0,0,0,0,0,0,0,0,0,0,0,0,0,0,0,0,0,0,0,0,0,0,0,0,0,0,0,0,0,0,4.3011,4.3011,0,4.3069,4.307,4.307,4.302,4.3018,4.3016,4.3014,4.307,4.3073,4.3076,0,0,0,0,0,0,0,0,0,0,0,0,0,4.2851,4.2854,4.3011,4.3011,4.3012,4.3069,4.307,4.307,4.302,4.3018,4.3015,4.3013,4.3068,4.3072,4.3077,0,0,0,0,0,0,0,0,0,0,0,0,0,4.2916,4.2855,4.301,4.2994,4.2993,4.3069,4.307,4.3071,4.3021,4.3018,4.3015,4.3012,4.3067,4.3072,4.3077,4.317,0,0,4.3093,4.3095,0,0,0,0,0,0,0,0,4.2912,4.2922,4.2996,4.2995,4.2994,4.3034,4.3034,4.3104,4.3022,4.301,4.3014,4.301,4.306,4.3065,4.3083,4.3173,4.3175,4.3093,4.3096,4.3098,4.31,0,0,0,0,0,0,0,4.2908,4.2919,4.3033,4.2997,4.2996,4.2982,4.2988,4.3047,4.3052,4.3011,4.3008,4.3015,4.3059,4.3078,4.3084,4.3176,4.3093,4.3098,4.3101,4.3103,4.3343,4.3346,0,0,0,0,0,0,4.2906,4.2915,4.3032,4.3035,4.2945,4.2987,4.2994,4.3024,4.3051,4.3052,4.3018,4.3013,4.3071,4.3078,4.3086,4.3195,4.3098,4.3103,4.3106,4.334,4.3344,4.3347,0,0,0,0,0,0,4.2902,4.2916,4.3029,4.2974,4.2988,4.2994,4.3028,4.3027,4.3046,4.3056,4.3056,4.3037,4.3069,4.3079,4.315,4.3196,4.3105,4.311,4.3336,4.3341,4.3346,4.3415,0,0,0,0,0,0,4.2898,4.2916,4.2952,4.2976,4.2991,4.3094,4.3031,4.3031,4.3056,4.305,4.3074,4.3075,4.3067,4.3142,4.3155,4.3202,4.3114,4.3332,4.3338,4.3344,4.3409,4.3422,4.3434,0,0,0,0,0,4.2892,4.2969,4.2955,4.2969,4.3037,4.3097,4.3105,4.3096,4.306,4.3096,4.3102,4.3074,4.319,4.315,4.3163,4.3213,4.3329,4.3336,4.3344,4.3403,4.342,4.3433,0,0,0,0,0,0,4.295,4.2972,4.2956,4.3043,4.3068,4.3088,4.3133,4.3113,4.3148,4.3141,4.3127,4.3132,4.3207,4.3217,4.3172,4.3303,4.3253,4.3264,4.3294,4.3309,4.3321,4.3317,4.3118,0,0,0,0,0,4.2973,4.3021,4.3037,4.3112,4.3126,4.3128,4.3153,4.3144,4.3169,4.3179,4.319,4.3214,4.3256,4.3283,4.3322,4.3411,4.3414,4.3451,4.3463,4.3473,4.3482,4.3527,4.3543,4.3372,4.3372,4.3372,0,0,4.3021,4.3039,4.307,4.3124,4.3143,4.3191,4.3137,4.319,4.3225,4.3187,4.3254,4.3263,4.3289,4.3369,4.3404,4.3379,4.353,4.3483,4.3491,4.3494,4.3537,4.3553,4.3567,4.3377,4.3376,4.3375,0,0,4.3132,4.3151,4.3215,4.3235,4.3264,4.3265,4.328,4.3303,4.3307,4.3375,4.3347,4.3387,4.346,4.3479,4.3498,4.3615,4.359,4.3628,4.3692,4.3736,4.375,4.3761,4.3801,4.3816,4.3637,4.3638,4.3638,0,4.3187,4.326,4.325,4.3305,4.3329,4.3298,4.3361,4.338,4.342,4.3436,4.3408,4.3497,4.3513,4.3595,4.3624,4.3641,4.3656,4.3625,4.3749,4.3761,4.3771,4.3809,4.3824,4.3642,4.3641,4.3641,4.364,0,4.3325,4.3376,4.3423,4.3464,4.3493,4.3552,4.3549,4.358,4.3568,4.3571,4.3639,4.3656,4.3697,4.3717,4.3705,4.3797,4.378,4.3751,4.37,4.3792,4.3827,4.3842,4.3648,4.3646,4.3645,4.3644,0,0,4.3473,4.3507,4.3525,4.3542,4.3571,4.361,4.3666,4.3708,4.3733,4.3762,4.3807,4.3869,4.3841,4.3863,4.3853,4.3893,4.3982,4.3858,4.3858,4.3879,4.4082,4.4103,4.412,4.3966,4.3969,4.3971,4.4079,0,4.3584,4.3684,4.3676,4.377,4.3816,4.3786,4.3835,4.3857,4.3862,4.3899,4.3903,4.3946,4.3908,4.3921,4.3958,4.3963,4.4022,4.3955,4.4006,4.4008,4.3999,4.4138,4.4161,4.4262,4.4093,4.4095,4.4097,0,4.3726,4.376,4.3859,4.388,4.3899,4.3944,4.398,4.4017,4.4041,4.4041,4.4066,4.4049,4.4104,4.4053,4.4127,4.4082,4.4102,4.4108,4.4111,4.4114,4.4057,4.4143,4.4294,4.4308,4.4119,4.4117,4.4116,0,4.3822,4.3893,4.396,4.3976,4.4004,4.4035,4.4048,4.4069,4.4094,4.4125,4.414,4.4177,4.4197,4.4225,4.4218,4.4182,4.4293,4.4242,4.4293,4.4293,4.4316,4.4315,4.4471,4.4333,4.4333,4.4332,4.4332,0,4.3945,4.4006,4.4004,4.4045,4.4112,4.4102,4.4168,4.4176,4.4195,4.4236,4.4213,4.4251,4.4241,4.4278,4.4273,4.4334,4.4344,4.4344,4.4341,4.4345,4.4345,4.4357,4.4349,4.4336,4.4336,4.4335,4.4334,0,4.4063,4.4064,4.4136,4.4156,4.4162,4.421,4.4226,4.4264,4.4267,4.4319,4.433,4.4333,4.4376,4.4372,4.4421,4.4417,4.4492,4.4482,4.4484,4.4481,4.4532,4.4526,4.4699,4.472,4.4571,4.4572,4.4573,0,4.4141,4.4187,4.4212,4.4239,4.4254,4.4297,4.4322,4.4313,4.434,4.4371,4.4405,4.4446,4.4478,4.4548,4.4553,4.4589,4.4579,4.4637,4.4584,4.4586,4.4577,4.4574,4.4577,4.4647,4.4649,4.465,4.4651,0,4.4278,4.4276,4.4314,4.4353,4.4383,4.4413,4.4439,4.4462,4.4456,4.4487,4.4531,4.4556,4.4606,4.4646,4.468,4.4691,4.4669,4.4668,4.4681,4.4685,4.4683,4.4682,4.4511,4.4664,4.4662,4.4661,4.4661,4.466,4.4377,4.4416,4.444,4.4482,4.4502,4.4527,4.4563,4.457,4.4607,4.4648,4.464,4.4689,4.471,4.4754,4.4769,4.4806,4.4784,4.4804,4.4809,4.4813,4.4818,4.4679,4.4812,4.4812,4.4811,4.4811,4.4811,0,4.4511,4.4525,4.4564,4.4603,4.4636,4.4615,4.4642,4.4671,4.4715,4.4737,4.477,4.482,4.4858,4.4867,4.4904,4.4931,4.4922,4.4941,4.4938,4.494,4.4836,4.482,4.4948,4.4948,4.4948,4.4948,4.4948,4.4948,4.4585,4.4649,4.465,4.4723,4.4736,4.4785,4.4802,4.4825,4.4842,4.4899,4.4932,4.4938,4.4954,4.4991,4.5025,4.5026,4.504,4.5062,4.506,4.4962,4.4948,4.4935,4.4919,4.5066,4.5066,4.516,4.5161,4.5162]}]]